Powrót do katalogu

LEMUR 2 SQUIRRELCOMM

AktywnyNaukaSSO
NORAD 60578·PAYLOAD·🇺🇸 United States

Wystrzelony Aug 16, 2024 z Vandenberg Space Force Base

Loading…

Następne Przeloty (najbliższe 24 godziny)

TLE

ŚwieżeSource: Space-Track

Epoka: Sep 14, 2026, 11:02 UTC

1 60578U 24149DQ  26257.45983147  .00004387  00000-0  28911-3 0  9995
2 60578  97.6656 338.1193 0006708 105.3400 254.8569 15.08007901113857

Śledź LEMUR 2 SQUIRRELCOMM w czasie rzeczywistym z AllMySat

Download on the App Store